User: anonymous   Login
Location: Erdweis
(48.5167°N, 15.3500°E)
Time: 05:30:09
(UTC+00:00)
Language:

Cosmos 1805 - Orbit

View from above orbital plane
View from above orbital plane
View from above satellite
View from above satellite

Ground track
Ground track

The orbit data is extracted from the following two-line orbital elements,

1 17191U 86097A   20333.42816959  .00000516  00000-0  27687-4 0  9990
2 17191  82.4759 227.2080 0006060  60.5044 299.6791 15.12778548854118
Epoch (UTC): 28 November 2020 10:16:33
Eccentricity: 0.0006060
inclination: 82.4759°
perigee height: 523 km
apogee height: 532 km
right ascension of ascending node: 227.2080°
argument of perigee: 60.5044°
revolutions per day: 15.12778548
mean anomaly at epoch: 299.6791°
orbit number at epoch: 85411

The dashed part of the orbit path shows where the satellite is in the earth's shadow,  

DLR